Time,TemperatureF,DewpointF,PressureIn,WindDirection,WindDirectionDegrees,WindSpeedMPH,WindSpeedGustMPH,Humidity,HourlyPrecipIn,Conditions,Clouds,dailyrainin,SoftwareType,DateUTC
2013-05-16 00:00:00,71.6,63.3,30.17,NE,45,6.0,-999.0,75,0.00,,,0.01,Wunderground v.1.15,2013-05-16 10:00:00,
2013-05-16 00:05:00,71.6,63.3,30.17,NE,45,6.0,-999.0,75,0.00,,,0.01,Wunderground v.1.15,2013-05-16 10:05:00,
2013-05-16 00:10:00,71.6,63.3,30.17,NE,45,6.0,-999.0,75,0.00,,,0.01,Wunderground v.1.15,2013-05-16 10:10:00,
2013-05-16 00:15:00,71.6,63.3,30.17,NE,45,6.0,-999.0,75,0.00,,,0.01,Wunderground v.1.15,2013-05-16 10:15:00,
2013-05-16 00:20:00,71.6,63.3,30.17,NE,45,6.0,-999.0,75,0.00,,,0.01,Wunderground v.1.15,2013-05-16 10:20:00,
2013-05-16 00:25:00,71.6,63.3,30.17,NE,45,6.0,-999.0,75,0.00,,,0.01,Wunderground v.1.15,2013-05-16 10:25:00,
2013-05-16 00:30:00,71.6,63.3,30.17,NE,45,6.0,-999.0,75,0.00,,,0.01,Wunderground v.1.15,2013-05-16 10:30:00,
2013-05-16 00:35:00,71.6,63.3,30.17,NE,45,6.0,-999.0,75,0.00,,,0.01,Wunderground v.1.15,2013-05-16 10:35:00,
2013-05-16 00:40:00,71.6,63.3,30.17,NE,45,6.0,-999.0,75,0.00,,,0.01,Wunderground v.1.15,2013-05-16 10:40:00,
2013-05-16 00:45:00,71.3,63.3,30.16,ENE,68,5.0,-999.0,76,0.00,,,0.01,Wunderground v.1.15,2013-05-16 10:45:00,
2013-05-16 00:50:00,71.3,63.3,30.16,ENE,68,5.0,-999.0,76,0.00,,,0.01,Wunderground v.1.15,2013-05-16 10:50:00,
2013-05-16 00:55:00,71.3,63.3,30.16,ENE,68,5.0,-999.0,76,0.00,,,0.01,Wunderground v.1.15,2013-05-16 10:55:00,
2013-05-16 01:00:00,71.3,63.3,30.16,ENE,68,5.0,-999.0,76,0.00,,,0.01,Wunderground v.1.15,2013-05-16 11:00:00,
2013-05-16 01:05:00,71.3,63.3,30.16,ENE,68,5.0,-999.0,76,0.00,,,0.01,Wunderground v.1.15,2013-05-16 11:05:00,
2013-05-16 01:10:00,71.3,63.3,30.16,ENE,68,5.0,-999.0,76,0.00,,,0.01,Wunderground v.1.15,2013-05-16 11:10:00,
2013-05-16 01:15:00,71.1,62.8,30.15,NE,45,4.0,-999.0,75,0.00,,,0.01,Wunderground v.1.15,2013-05-16 11:15:00,
2013-05-16 01:20:00,71.1,62.8,30.15,NE,45,4.0,-999.0,75,0.00,,,0.01,Wunderground v.1.15,2013-05-16 11:20:00,
2013-05-16 01:25:00,71.1,62.8,30.15,NE,45,4.0,-999.0,75,0.00,,,0.01,Wunderground v.1.15,2013-05-16 11:25:00,
2013-05-16 01:30:00,71.1,62.8,30.15,NE,45,4.0,-999.0,75,0.00,,,0.01,Wunderground v.1.15,2013-05-16 11:30:00,
2013-05-16 01:35:00,71.1,62.8,30.15,NE,45,4.0,-999.0,75,0.00,,,0.01,Wunderground v.1.15,2013-05-16 11:35:00,
2013-05-16 01:40:00,71.1,62.8,30.15,NE,45,4.0,-999.0,75,0.00,,,0.01,Wunderground v.1.15,2013-05-16 11:40:00,
2013-05-16 01:45:00,70.9,63.0,30.14,East,90,5.0,-999.0,76,0.00,,,0.01,Wunderground v.1.15,2013-05-16 11:45:00,
2013-05-16 01:50:00,70.9,63.0,30.14,East,90,5.0,-999.0,76,0.00,,,0.01,Wunderground v.1.15,2013-05-16 11:50:00,
2013-05-16 01:55:00,70.9,63.0,30.14,East,90,5.0,-999.0,76,0.00,,,0.01,Wunderground v.1.15,2013-05-16 11:55:00,
2013-05-16 02:00:00,70.9,63.0,30.14,East,90,5.0,-999.0,76,0.00,,,0.01,Wunderground v.1.15,2013-05-16 12:00:00,
2013-05-16 02:05:00,70.9,63.0,30.14,East,90,5.0,-999.0,76,0.00,,,0.01,Wunderground v.1.15,2013-05-16 12:05:00,
2013-05-16 02:10:00,70.9,63.0,30.14,East,90,5.0,-999.0,76,0.00,,,0.01,Wunderground v.1.15,2013-05-16 12:10:00,
2013-05-16 02:15:00,70.6,63.4,30.13,ENE,68,4.0,-999.0,78,0.00,,,0.01,Wunderground v.1.15,2013-05-16 12:15:00,
2013-05-16 02:20:00,70.6,63.4,30.13,ENE,68,4.0,-999.0,78,0.00,,,0.01,Wunderground v.1.15,2013-05-16 12:20:00,
2013-05-16 02:25:00,70.6,63.4,30.13,ENE,68,4.0,-999.0,78,0.00,,,0.01,Wunderground v.1.15,2013-05-16 12:25:00,
2013-05-16 02:30:00,70.6,63.4,30.13,ENE,68,4.0,-999.0,78,0.00,,,0.01,Wunderground v.1.15,2013-05-16 12:30:00,
2013-05-16 02:35:00,70.6,63.4,30.13,ENE,68,4.0,-999.0,78,0.00,,,0.01,Wunderground v.1.15,2013-05-16 12:35:00,
2013-05-16 02:40:00,70.6,63.4,30.13,ENE,68,4.0,-999.0,78,0.00,,,0.01,Wunderground v.1.15,2013-05-16 12:40:00,
2013-05-16 02:45:00,70.2,63.4,30.12,ENE,68,4.0,-999.0,79,0.01,,,0.01,Wunderground v.1.15,2013-05-16 12:45:00,
2013-05-16 02:50:00,70.2,63.4,30.12,ENE,68,4.0,-999.0,79,0.01,,,0.01,Wunderground v.1.15,2013-05-16 12:50:00,
2013-05-16 02:55:00,70.2,63.4,30.12,ENE,68,4.0,-999.0,79,0.01,,,0.01,Wunderground v.1.15,2013-05-16 12:55:00,
2013-05-16 03:00:00,70.2,63.4,30.12,ENE,68,4.0,-999.0,79,0.01,,,0.01,Wunderground v.1.15,2013-05-16 13:00:00,
2013-05-16 03:05:00,70.2,63.4,30.12,ENE,68,4.0,-999.0,79,0.01,,,0.01,Wunderground v.1.15,2013-05-16 13:05:00,
2013-05-16 03:10:00,70.2,63.4,30.12,ENE,68,4.0,-999.0,79,0.01,,,0.01,Wunderground v.1.15,2013-05-16 13:10:00,
2013-05-16 03:15:00,70.0,63.5,30.12,NE,45,5.0,-999.0,80,0.01,,,0.01,Wunderground v.1.15,2013-05-16 13:15:00,
2013-05-16 03:20:00,70.0,63.5,30.12,NE,45,5.0,-999.0,80,0.01,,,0.01,Wunderground v.1.15,2013-05-16 13:20:00,
2013-05-16 03:25:00,70.0,63.5,30.12,NE,45,5.0,-999.0,80,0.01,,,0.01,Wunderground v.1.15,2013-05-16 13:25:00,
2013-05-16 03:30:00,70.0,63.5,30.12,NE,45,5.0,-999.0,80,0.01,,,0.01,Wunderground v.1.15,2013-05-16 13:30:00,
2013-05-16 03:35:00,70.0,63.5,30.12,NE,45,5.0,-999.0,80,0.01,,,0.01,Wunderground v.1.15,2013-05-16 13:35:00,
2013-05-16 03:40:00,70.0,63.5,30.12,NE,45,5.0,-999.0,80,0.01,,,0.01,Wunderground v.1.15,2013-05-16 13:40:00,
2013-05-16 03:45:00,70.0,63.2,30.12,NE,45,5.0,-999.0,79,0.00,,,0.01,Wunderground v.1.15,2013-05-16 13:45:00,
2013-05-16 03:50:00,70.0,63.2,30.12,NE,45,5.0,-999.0,79,0.00,,,0.01,Wunderground v.1.15,2013-05-16 13:50:00,
2013-05-16 03:55:00,70.0,63.2,30.12,NE,45,5.0,-999.0,79,0.00,,,0.01,Wunderground v.1.15,2013-05-16 13:55:00,
2013-05-16 04:00:00,70.0,63.2,30.12,NE,45,5.0,-999.0,79,0.00,,,0.01,Wunderground v.1.15,2013-05-16 14:00:00,
2013-05-16 04:05:00,70.0,63.2,30.12,NE,45,5.0,-999.0,79,0.00,,,0.01,Wunderground v.1.15,2013-05-16 14:05:00,
2013-05-16 04:10:00,70.0,63.2,30.12,NE,45,5.0,-999.0,79,0.00,,,0.01,Wunderground v.1.15,2013-05-16 14:10:00,
2013-05-16 04:15:00,70.1,62.9,30.12,NE,45,5.0,-999.0,78,0.00,,,0.01,Wunderground v.1.15,2013-05-16 14:15:00,
2013-05-16 04:20:00,70.1,62.9,30.12,NE,45,5.0,-999.0,78,0.00,,,0.01,Wunderground v.1.15,2013-05-16 14:20:00,
2013-05-16 04:25:00,70.1,62.9,30.12,NE,45,5.0,-999.0,78,0.00,,,0.01,Wunderground v.1.15,2013-05-16 14:25:00,
2013-05-16 04:30:00,70.1,62.9,30.12,NE,45,5.0,-999.0,78,0.00,,,0.01,Wunderground v.1.15,2013-05-16 14:30:00,
2013-05-16 04:35:00,70.1,62.9,30.12,NE,45,5.0,-999.0,78,0.00,,,0.01,Wunderground v.1.15,2013-05-16 14:35:00,
2013-05-16 04:40:00,70.1,62.9,30.12,NE,45,5.0,-999.0,78,0.00,,,0.01,Wunderground v.1.15,2013-05-16 14:40:00,
2013-05-16 04:45:00,70.1,62.6,30.12,NE,45,5.0,-999.0,77,0.00,,,0.01,Wunderground v.1.15,2013-05-16 14:45:00,
2013-05-16 04:50:00,70.1,62.6,30.12,NE,45,5.0,-999.0,77,0.00,,,0.01,Wunderground v.1.15,2013-05-16 14:50:00,
2013-05-16 04:55:00,70.1,62.6,30.12,NE,45,5.0,-999.0,77,0.00,,,0.01,Wunderground v.1.15,2013-05-16 14:55:00,
2013-05-16 05:00:00,70.1,62.6,30.12,NE,45,5.0,-999.0,77,0.00,,,0.01,Wunderground v.1.15,2013-05-16 15:00:00,
2013-05-16 05:05:00,70.1,62.6,30.12,NE,45,5.0,-999.0,77,0.00,,,0.01,Wunderground v.1.15,2013-05-16 15:05:00,
2013-05-16 05:10:00,70.1,62.6,30.12,NE,45,5.0,-999.0,77,0.00,,,0.01,Wunderground v.1.15,2013-05-16 15:10:00,
2013-05-16 05:15:00,69.9,62.7,30.12,NE,45,5.0,-999.0,78,0.00,,,0.01,Wunderground v.1.15,2013-05-16 15:15:00,
2013-05-16 05:20:00,69.9,62.7,30.12,NE,45,5.0,-999.0,78,0.00,,,0.01,Wunderground v.1.15,2013-05-16 15:20:00,
2013-05-16 05:25:00,69.9,62.7,30.12,NE,45,5.0,-999.0,78,0.00,,,0.01,Wunderground v.1.15,2013-05-16 15:25:00,
2013-05-16 05:30:00,69.9,62.7,30.12,NE,45,5.0,-999.0,78,0.00,,,0.01,Wunderground v.1.15,2013-05-16 15:30:00,
2013-05-16 05:35:00,69.9,62.7,30.12,NE,45,5.0,-999.0,78,0.00,,,0.01,Wunderground v.1.15,2013-05-16 15:35:00,
2013-05-16 05:40:00,69.9,62.7,30.12,NE,45,5.0,-999.0,78,0.00,,,0.01,Wunderground v.1.15,2013-05-16 15:40:00,
2013-05-16 05:45:00,69.8,62.6,30.13,NE,45,5.0,-999.0,78,0.00,,,0.01,Wunderground v.1.15,2013-05-16 15:45:00,
2013-05-16 05:50:00,69.8,62.6,30.13,NE,45,5.0,-999.0,78,0.00,,,0.01,Wunderground v.1.15,2013-05-16 15:50:00,
2013-05-16 05:55:00,69.8,62.6,30.13,NE,45,5.0,-999.0,78,0.00,,,0.01,Wunderground v.1.15,2013-05-16 15:55:00,
2013-05-16 06:00:00,69.8,62.6,30.13,NE,45,5.0,-999.0,78,0.00,,,0.01,Wunderground v.1.15,2013-05-16 16:00:00,
2013-05-16 06:05:00,69.8,62.6,30.13,NE,45,5.0,-999.0,78,0.00,,,0.01,Wunderground v.1.15,2013-05-16 16:05:00,
2013-05-16 06:10:00,69.8,62.6,30.13,NE,45,5.0,-999.0,78,0.00,,,0.01,Wunderground v.1.15,2013-05-16 16:10:00,
2013-05-16 06:15:00,70.1,62.9,30.14,NE,45,5.0,-999.0,78,0.00,,,0.01,Wunderground v.1.15,2013-05-16 16:15:00,
2013-05-16 06:20:00,70.1,62.9,30.14,NE,45,5.0,-999.0,78,0.00,,,0.01,Wunderground v.1.15,2013-05-16 16:20:00,
2013-05-16 06:25:00,70.1,62.9,30.14,NE,45,5.0,-999.0,78,0.00,,,0.01,Wunderground v.1.15,2013-05-16 16:25:00,
2013-05-16 06:30:00,70.1,62.9,30.14,NE,45,5.0,-999.0,78,0.00,,,0.01,Wunderground v.1.15,2013-05-16 16:30:00,
2013-05-16 06:35:00,70.1,62.9,30.14,NE,45,5.0,-999.0,78,0.00,,,0.01,Wunderground v.1.15,2013-05-16 16:35:00,
2013-05-16 06:40:00,70.1,62.9,30.14,NE,45,5.0,-999.0,78,0.00,,,0.01,Wunderground v.1.15,2013-05-16 16:40:00,
2013-05-16 06:45:00,70.6,63.0,30.15,NE,45,5.0,-999.0,77,0.00,,,0.01,Wunderground v.1.15,2013-05-16 16:45:00,
2013-05-16 06:50:00,70.6,63.0,30.15,NE,45,5.0,-999.0,77,0.00,,,0.01,Wunderground v.1.15,2013-05-16 16:50:00,
2013-05-16 06:55:00,70.6,63.0,30.15,NE,45,5.0,-999.0,77,0.00,,,0.01,Wunderground v.1.15,2013-05-16 16:55:00,
2013-05-16 07:00:00,70.6,63.0,30.15,NE,45,5.0,-999.0,77,0.00,,,0.01,Wunderground v.1.15,2013-05-16 17:00:00,
2013-05-16 07:05:00,70.6,63.0,30.15,NE,45,5.0,-999.0,77,0.00,,,0.01,Wunderground v.1.15,2013-05-16 17:05:00,
2013-05-16 07:10:00,70.6,63.0,30.15,NE,45,5.0,-999.0,77,0.00,,,0.01,Wunderground v.1.15,2013-05-16 17:10:00,
2013-05-16 07:15:00,71.7,63.0,30.16,NE,45,6.0,-999.0,74,0.00,,,0.01,Wunderground v.1.15,2013-05-16 17:15:00,
2013-05-16 07:20:00,71.7,63.0,30.16,NE,45,6.0,-999.0,74,0.00,,,0.01,Wunderground v.1.15,2013-05-16 17:20:00,
2013-05-16 07:25:00,71.7,63.0,30.16,NE,45,6.0,-999.0,74,0.00,,,0.01,Wunderground v.1.15,2013-05-16 17:25:00,
2013-05-16 07:30:00,71.7,63.0,30.16,NE,45,6.0,-999.0,74,0.00,,,0.01,Wunderground v.1.15,2013-05-16 17:30:00,
2013-05-16 07:35:00,71.7,63.0,30.16,NE,45,6.0,-999.0,74,0.00,,,0.01,Wunderground v.1.15,2013-05-16 17:35:00,
2013-05-16 07:40:00,71.7,63.0,30.16,NE,45,6.0,-999.0,74,0.00,,,0.01,Wunderground v.1.15,2013-05-16 17:40:00,
2013-05-16 07:45:00,73.2,63.6,30.16,NE,45,7.0,-999.0,72,0.00,,,0.01,Wunderground v.1.15,2013-05-16 17:45:00,
2013-05-16 07:50:00,73.2,63.6,30.16,NE,45,7.0,-999.0,72,0.00,,,0.01,Wunderground v.1.15,2013-05-16 17:50:00,
2013-05-16 07:55:00,73.2,63.6,30.16,NE,45,7.0,-999.0,72,0.00,,,0.01,Wunderground v.1.15,2013-05-16 17:55:00,
2013-05-16 08:00:00,73.2,63.6,30.16,NE,45,7.0,-999.0,72,0.00,,,0.01,Wunderground v.1.15,2013-05-16 18:00:00,
2013-05-16 08:05:00,73.2,63.6,30.16,NE,45,7.0,-999.0,72,0.00,,,0.01,Wunderground v.1.15,2013-05-16 18:05:00,
2013-05-16 08:10:00,73.2,63.6,30.16,NE,45,7.0,-999.0,72,0.00,,,0.01,Wunderground v.1.15,2013-05-16 18:10:00,
2013-05-16 08:15:00,74.2,63.8,30.16,NE,45,8.0,-999.0,70,0.00,,,0.01,Wunderground v.1.15,2013-05-16 18:15:00,
2013-05-16 08:20:00,74.2,63.8,30.16,NE,45,8.0,-999.0,70,0.00,,,0.01,Wunderground v.1.15,2013-05-16 18:20:00,
2013-05-16 08:25:00,74.2,63.8,30.16,NE,45,8.0,-999.0,70,0.00,,,0.01,Wunderground v.1.15,2013-05-16 18:25:00,
2013-05-16 08:30:00,74.2,63.8,30.16,NE,45,8.0,-999.0,70,0.00,,,0.01,Wunderground v.1.15,2013-05-16 18:30:00,
2013-05-16 08:35:00,74.2,63.8,30.16,NE,45,8.0,-999.0,70,0.00,,,0.01,Wunderground v.1.15,2013-05-16 18:35:00,
2013-05-16 08:40:00,74.2,63.8,30.16,NE,45,8.0,-999.0,70,0.00,,,0.01,Wunderground v.1.15,2013-05-16 18:40:00,
2013-05-16 08:45:00,74.6,64.2,30.16,NE,45,8.0,-999.0,70,0.00,,,0.01,Wunderground v.1.15,2013-05-16 18:45:00,
2013-05-16 08:50:00,74.6,64.2,30.16,NE,45,8.0,-999.0,70,0.00,,,0.01,Wunderground v.1.15,2013-05-16 18:50:00,
2013-05-16 08:55:00,74.6,64.2,30.16,NE,45,8.0,-999.0,70,0.00,,,0.01,Wunderground v.1.15,2013-05-16 18:55:00,
2013-05-16 09:00:00,74.6,64.2,30.16,NE,45,8.0,-999.0,70,0.00,,,0.01,Wunderground v.1.15,2013-05-16 19:00:00,
2013-05-16 09:05:00,74.6,64.2,30.16,NE,45,8.0,-999.0,70,0.00,,,0.01,Wunderground v.1.15,2013-05-16 19:05:00,
2013-05-16 09:10:00,74.6,64.2,30.16,NE,45,8.0,-999.0,70,0.00,,,0.01,Wunderground v.1.15,2013-05-16 19:10:00,
2013-05-16 09:15:00,75.6,64.3,30.16,NE,45,8.0,-999.0,68,0.00,,,0.01,Wunderground v.1.15,2013-05-16 19:15:00,
2013-05-16 09:20:00,75.6,64.3,30.16,NE,45,8.0,-999.0,68,0.00,,,0.01,Wunderground v.1.15,2013-05-16 19:20:00,
2013-05-16 09:25:00,75.6,64.3,30.16,NE,45,8.0,-999.0,68,0.00,,,0.01,Wunderground v.1.15,2013-05-16 19:25:00,
2013-05-16 09:30:00,75.6,64.3,30.16,NE,45,8.0,-999.0,68,0.00,,,0.01,Wunderground v.1.15,2013-05-16 19:30:00,
2013-05-16 09:35:00,75.6,64.3,30.16,NE,45,8.0,-999.0,68,0.00,,,0.01,Wunderground v.1.15,2013-05-16 19:35:00,
2013-05-16 09:40:00,75.6,64.3,30.16,NE,45,8.0,-999.0,68,0.00,,,0.01,Wunderground v.1.15,2013-05-16 19:40:00,
2013-05-16 09:45:00,76.5,64.3,30.16,NE,45,9.0,-999.0,66,0.00,,,0.01,Wunderground v.1.15,2013-05-16 19:45:00,
2013-05-16 09:50:00,76.5,64.3,30.16,NE,45,9.0,-999.0,66,0.00,,,0.01,Wunderground v.1.15,2013-05-16 19:50:00,
2013-05-16 09:55:00,76.5,64.3,30.16,NE,45,9.0,-999.0,66,0.00,,,0.01,Wunderground v.1.15,2013-05-16 19:55:00,
2013-05-16 10:00:00,76.5,64.3,30.16,NE,45,9.0,-999.0,66,0.00,,,0.01,Wunderground v.1.15,2013-05-16 20:00:00,
2013-05-16 10:05:00,76.5,64.3,30.16,NE,45,9.0,-999.0,66,0.00,,,0.01,Wunderground v.1.15,2013-05-16 20:05:00,
2013-05-16 10:10:00,76.5,64.3,30.16,NE,45,9.0,-999.0,66,0.00,,,0.01,Wunderground v.1.15,2013-05-16 20:10:00,
2013-05-16 10:15:00,76.5,64.3,30.15,NE,45,10.0,-999.0,66,0.00,,,0.01,Wunderground v.1.15,2013-05-16 20:15:00,
2013-05-16 10:20:00,76.5,64.3,30.15,NE,45,10.0,-999.0,66,0.00,,,0.01,Wunderground v.1.15,2013-05-16 20:20:00,
2013-05-16 10:25:00,76.5,64.3,30.15,NE,45,10.0,-999.0,66,0.00,,,0.01,Wunderground v.1.15,2013-05-16 20:25:00,
2013-05-16 10:30:00,76.5,64.3,30.15,NE,45,10.0,-999.0,66,0.00,,,0.01,Wunderground v.1.15,2013-05-16 20:30:00,
2013-05-16 10:35:00,76.5,64.3,30.15,NE,45,10.0,-999.0,66,0.00,,,0.01,Wunderground v.1.15,2013-05-16 20:35:00,
2013-05-16 10:40:00,76.5,64.3,30.15,NE,45,10.0,-999.0,66,0.00,,,0.01,Wunderground v.1.15,2013-05-16 20:40:00,
2013-05-16 10:45:00,78.8,64.2,30.15,NE,45,11.0,-999.0,61,0.00,,,0.01,Wunderground v.1.15,2013-05-16 20:45:00,
2013-05-16 10:50:00,78.8,64.2,30.15,NE,45,11.0,-999.0,61,0.00,,,0.01,Wunderground v.1.15,2013-05-16 20:50:00,
2013-05-16 10:55:00,78.8,64.2,30.15,NE,45,11.0,-999.0,61,0.00,,,0.01,Wunderground v.1.15,2013-05-16 20:55:00,
2013-05-16 11:00:00,78.8,64.2,30.15,NE,45,11.0,-999.0,61,0.00,,,0.01,Wunderground v.1.15,2013-05-16 21:00:00,
2013-05-16 11:05:00,78.8,64.2,30.15,NE,45,11.0,-999.0,61,0.00,,,0.01,Wunderground v.1.15,2013-05-16 21:05:00,
2013-05-16 11:10:00,78.8,64.2,30.15,NE,45,11.0,-999.0,61,0.00,,,0.01,Wunderground v.1.15,2013-05-16 21:10:00,
2013-05-16 11:15:00,80.0,64.4,30.14,NE,45,10.0,-999.0,59,0.00,,,0.01,Wunderground v.1.15,2013-05-16 21:15:00,
2013-05-16 11:20:00,80.0,64.4,30.14,NE,45,10.0,-999.0,59,0.00,,,0.01,Wunderground v.1.15,2013-05-16 21:20:00,
2013-05-16 11:25:00,80.0,64.4,30.14,NE,45,10.0,-999.0,59,0.00,,,0.01,Wunderground v.1.15,2013-05-16 21:25:00,
2013-05-16 11:30:00,80.0,64.4,30.14,NE,45,10.0,-999.0,59,0.00,,,0.01,Wunderground v.1.15,2013-05-16 21:30:00,
2013-05-16 11:35:00,80.0,64.4,30.14,NE,45,10.0,-999.0,59,0.00,,,0.01,Wunderground v.1.15,2013-05-16 21:35:00,
2013-05-16 11:40:00,80.0,64.4,30.14,NE,45,10.0,-999.0,59,0.00,,,0.01,Wunderground v.1.15,2013-05-16 21:40:00,
2013-05-16 11:45:00,80.2,67.8,30.14,NE,45,9.0,-999.0,66,0.00,,,0.01,Wunderground v.1.15,2013-05-16 21:45:00,
2013-05-16 11:50:00,80.2,67.8,30.14,NE,45,9.0,-999.0,66,0.00,,,0.01,Wunderground v.1.15,2013-05-16 21:50:00,
2013-05-16 11:55:00,80.2,67.8,30.14,NE,45,9.0,-999.0,66,0.00,,,0.01,Wunderground v.1.15,2013-05-16 21:55:00,
2013-05-16 12:00:00,80.2,67.8,30.14,NE,45,9.0,-999.0,66,0.00,,,0.01,Wunderground v.1.15,2013-05-16 22:00:00,
2013-05-16 12:05:00,80.2,67.8,30.14,NE,45,9.0,-999.0,66,0.00,,,0.01,Wunderground v.1.15,2013-05-16 22:05:00,
2013-05-16 12:10:00,80.2,67.8,30.14,NE,45,9.0,-999.0,66,0.00,,,0.01,Wunderground v.1.15,2013-05-16 22:10:00,
2013-05-16 12:15:00,79.9,65.2,30.12,NE,45,9.0,-999.0,61,0.00,,,0.01,Wunderground v.1.15,2013-05-16 22:15:00,
2013-05-16 12:20:00,79.9,65.2,30.12,NE,45,9.0,-999.0,61,0.00,,,0.01,Wunderground v.1.15,2013-05-16 22:20:00,
2013-05-16 12:25:00,79.9,65.2,30.12,NE,45,9.0,-999.0,61,0.00,,,0.01,Wunderground v.1.15,2013-05-16 22:25:00,
2013-05-16 12:30:00,79.9,65.2,30.12,NE,45,9.0,-999.0,61,0.00,,,0.01,Wunderground v.1.15,2013-05-16 22:30:00,
2013-05-16 12:35:00,79.9,65.2,30.12,NE,45,9.0,-999.0,61,0.00,,,0.01,Wunderground v.1.15,2013-05-16 22:35:00,
2013-05-16 12:40:00,79.9,65.2,30.12,NE,45,9.0,-999.0,61,0.00,,,0.01,Wunderground v.1.15,2013-05-16 22:40:00,
2013-05-16 12:45:00,81.2,67.4,30.11,NE,45,9.0,-999.0,63,0.00,,,0.01,Wunderground v.1.15,2013-05-16 22:45:00,
2013-05-16 12:50:00,81.2,67.4,30.11,NE,45,9.0,-999.0,63,0.00,,,0.01,Wunderground v.1.15,2013-05-16 22:50:00,
2013-05-16 12:55:00,81.2,67.4,30.11,NE,45,9.0,-999.0,63,0.00,,,0.01,Wunderground v.1.15,2013-05-16 22:55:00,
2013-05-16 13:00:00,81.2,67.4,30.11,NE,45,9.0,-999.0,63,0.00,,,0.01,Wunderground v.1.15,2013-05-16 23:00:00,
2013-05-16 13:05:00,81.2,67.4,30.11,NE,45,9.0,-999.0,63,0.00,,,0.01,Wunderground v.1.15,2013-05-16 23:05:00,
2013-05-16 13:10:00,81.2,67.4,30.11,NE,45,9.0,-999.0,63,0.00,,,0.01,Wunderground v.1.15,2013-05-16 23:10:00,
2013-05-16 13:15:00,80.5,66.3,30.10,NE,45,10.0,-999.0,62,0.00,,,0.01,Wunderground v.1.15,2013-05-16 23:15:00,
2013-05-16 13:20:00,80.5,66.3,30.10,NE,45,10.0,-999.0,62,0.00,,,0.01,Wunderground v.1.15,2013-05-16 23:20:00,
2013-05-16 13:25:00,80.5,66.3,30.10,NE,45,10.0,-999.0,62,0.00,,,0.01,Wunderground v.1.15,2013-05-16 23:25:00,
2013-05-16 13:30:00,80.5,66.3,30.10,NE,45,10.0,-999.0,62,0.00,,,0.01,Wunderground v.1.15,2013-05-16 23:30:00,
2013-05-16 13:35:00,80.5,66.3,30.10,NE,45,10.0,-999.0,62,0.00,,,0.01,Wunderground v.1.15,2013-05-16 23:35:00,
2013-05-16 13:40:00,80.5,66.3,30.10,NE,45,10.0,-999.0,62,0.00,,,0.01,Wunderground v.1.15,2013-05-16 23:40:00,
2013-05-16 13:45:00,80.9,64.2,30.10,NE,45,11.0,-999.0,57,0.00,,,0.01,Wunderground v.1.15,2013-05-16 23:45:00,
2013-05-16 13:50:00,80.9,64.2,30.10,NE,45,11.0,-999.0,57,0.00,,,0.01,Wunderground v.1.15,2013-05-16 23:50:00,
2013-05-16 13:55:00,80.9,64.2,30.10,NE,45,11.0,-999.0,57,0.00,,,0.01,Wunderground v.1.15,2013-05-16 23:55:00,
2013-05-16 14:00:00,80.9,64.2,30.10,NE,45,11.0,-999.0,57,0.00,,,0.01,Wunderground v.1.15,2013-05-17 00:00:00,
2013-05-16 14:05:00,80.9,64.2,30.10,NE,45,11.0,-999.0,57,0.00,,,0.01,Wunderground v.1.15,2013-05-17 00:05:00,
2013-05-16 14:10:00,80.9,64.2,30.10,NE,45,11.0,-999.0,57,0.00,,,0.01,Wunderground v.1.15,2013-05-17 00:10:00,
2013-05-16 14:15:00,82.6,65.8,30.08,NE,45,11.0,-999.0,57,0.00,,,0.01,Wunderground v.1.15,2013-05-17 00:15:00,
2013-05-16 14:20:00,82.6,65.8,30.08,NE,45,11.0,-999.0,57,0.00,,,0.01,Wunderground v.1.15,2013-05-17 00:20:00,
2013-05-16 14:25:00,82.6,65.8,30.08,NE,45,11.0,-999.0,57,0.00,,,0.01,Wunderground v.1.15,2013-05-17 00:25:00,
2013-05-16 14:30:00,82.6,65.8,30.08,NE,45,11.0,-999.0,57,0.00,,,0.01,Wunderground v.1.15,2013-05-17 00:30:00,
2013-05-16 14:35:00,82.6,65.8,30.08,NE,45,11.0,-999.0,57,0.00,,,0.01,Wunderground v.1.15,2013-05-17 00:35:00,
2013-05-16 14:40:00,82.6,65.8,30.08,NE,45,11.0,-999.0,57,0.00,,,0.01,Wunderground v.1.15,2013-05-17 00:40:00,
2013-05-16 14:45:00,82.9,67.1,30.10,NE,45,10.0,-999.0,59,0.00,,,0.01,Wunderground v.1.15,2013-05-17 00:45:00,
2013-05-16 14:50:00,82.9,67.1,30.10,NE,45,10.0,-999.0,59,0.00,,,0.01,Wunderground v.1.15,2013-05-17 00:50:00,
2013-05-16 14:55:00,82.9,67.1,30.10,NE,45,10.0,-999.0,59,0.00,,,0.01,Wunderground v.1.15,2013-05-17 00:55:00,
2013-05-16 15:00:00,82.9,67.1,30.10,NE,45,10.0,-999.0,59,0.00,,,0.01,Wunderground v.1.15,2013-05-17 01:00:00,
2013-05-16 15:05:00,82.9,67.1,30.10,NE,45,10.0,-999.0,59,0.00,,,0.01,Wunderground v.1.15,2013-05-17 01:05:00,
2013-05-16 15:10:00,82.9,67.1,30.10,NE,45,10.0,-999.0,59,0.00,,,0.01,Wunderground v.1.15,2013-05-17 01:10:00,
2013-05-16 15:15:00,78.7,66.8,30.09,NE,45,8.0,-999.0,67,0.00,,,0.01,Wunderground v.1.15,2013-05-17 01:15:00,
2013-05-16 15:20:00,78.7,66.8,30.09,NE,45,8.0,-999.0,67,0.00,,,0.01,Wunderground v.1.15,2013-05-17 01:20:00,
2013-05-16 15:25:00,78.7,66.8,30.09,NE,45,8.0,-999.0,67,0.00,,,0.01,Wunderground v.1.15,2013-05-17 01:25:00,
2013-05-16 15:30:00,78.7,66.8,30.09,NE,45,8.0,-999.0,67,0.00,,,0.01,Wunderground v.1.15,2013-05-17 01:30:00,
2013-05-16 15:35:00,78.7,66.8,30.09,NE,45,8.0,-999.0,67,0.00,,,0.01,Wunderground v.1.15,2013-05-17 01:35:00,
2013-05-16 15:40:00,78.7,66.8,30.09,NE,45,8.0,-999.0,67,0.00,,,0.01,Wunderground v.1.15,2013-05-17 01:40:00,
2013-05-16 15:45:00,76.5,65.1,30.09,NE,45,7.0,-999.0,68,0.00,,,0.01,Wunderground v.1.15,2013-05-17 01:45:00,
2013-05-16 15:50:00,76.5,65.1,30.09,NE,45,7.0,-999.0,68,0.00,,,0.01,Wunderground v.1.15,2013-05-17 01:50:00,
2013-05-16 15:55:00,76.5,65.1,30.09,NE,45,7.0,-999.0,68,0.00,,,0.01,Wunderground v.1.15,2013-05-17 01:55:00,
2013-05-16 16:00:00,76.5,65.1,30.09,NE,45,7.0,-999.0,68,0.00,,,0.01,Wunderground v.1.15,2013-05-17 02:00:00,
2013-05-16 16:05:00,76.5,65.1,30.09,NE,45,7.0,-999.0,68,0.00,,,0.01,Wunderground v.1.15,2013-05-17 02:05:00,
2013-05-16 16:10:00,76.5,65.1,30.09,NE,45,7.0,-999.0,68,0.00,,,0.01,Wunderground v.1.15,2013-05-17 02:10:00,
2013-05-16 16:15:00,76.2,65.3,30.09,NE,45,7.0,-999.0,69,0.00,,,0.01,Wunderground v.1.15,2013-05-17 02:15:00,
2013-05-16 16:20:00,76.2,65.3,30.09,NE,45,7.0,-999.0,69,0.00,,,0.01,Wunderground v.1.15,2013-05-17 02:20:00,
2013-05-16 16:25:00,76.2,65.3,30.09,NE,45,7.0,-999.0,69,0.00,,,0.01,Wunderground v.1.15,2013-05-17 02:25:00,
2013-05-16 16:30:00,76.2,65.3,30.09,NE,45,7.0,-999.0,69,0.00,,,0.01,Wunderground v.1.15,2013-05-17 02:30:00,
2013-05-16 16:35:00,76.2,65.3,30.09,NE,45,7.0,-999.0,69,0.00,,,0.01,Wunderground v.1.15,2013-05-17 02:35:00,
2013-05-16 16:40:00,76.2,65.3,30.09,NE,45,7.0,-999.0,69,0.00,,,0.01,Wunderground v.1.15,2013-05-17 02:40:00,
2013-05-16 16:45:00,76.2,65.3,30.09,NE,45,8.0,-999.0,69,0.00,,,0.01,Wunderground v.1.15,2013-05-17 02:45:00,
2013-05-16 16:50:00,76.2,65.3,30.09,NE,45,8.0,-999.0,69,0.00,,,0.01,Wunderground v.1.15,2013-05-17 02:50:00,
2013-05-16 16:55:00,76.2,65.3,30.09,NE,45,8.0,-999.0,69,0.00,,,0.01,Wunderground v.1.15,2013-05-17 02:55:00,
2013-05-16 17:00:00,76.2,65.3,30.09,NE,45,8.0,-999.0,69,0.00,,,0.01,Wunderground v.1.15,2013-05-17 03:00:00,
2013-05-16 17:05:00,76.2,65.3,30.09,NE,45,8.0,-999.0,69,0.00,,,0.01,Wunderground v.1.15,2013-05-17 03:05:00,
2013-05-16 17:10:00,76.2,65.3,30.09,NE,45,8.0,-999.0,69,0.00,,,0.01,Wunderground v.1.15,2013-05-17 03:10:00,
2013-05-16 17:15:00,74.0,67.4,30.09,NE,45,6.0,-999.0,80,0.00,,,0.01,Wunderground v.1.15,2013-05-17 03:15:00,
2013-05-16 17:20:00,74.0,67.4,30.09,NE,45,6.0,-999.0,80,0.00,,,0.01,Wunderground v.1.15,2013-05-17 03:20:00,
2013-05-16 17:25:00,74.0,67.4,30.09,NE,45,6.0,-999.0,80,0.00,,,0.01,Wunderground v.1.15,2013-05-17 03:25:00,
2013-05-16 17:30:00,74.0,67.4,30.09,NE,45,6.0,-999.0,80,0.00,,,0.01,Wunderground v.1.15,2013-05-17 03:30:00,
2013-05-16 17:35:00,74.0,67.4,30.09,NE,45,6.0,-999.0,80,0.00,,,0.01,Wunderground v.1.15,2013-05-17 03:35:00,
2013-05-16 17:40:00,74.0,67.4,30.09,NE,45,6.0,-999.0,80,0.00,,,0.01,Wunderground v.1.15,2013-05-17 03:40:00,
2013-05-16 17:45:00,71.7,64.1,30.09,East,90,6.0,-999.0,77,0.00,,,0.01,Wunderground v.1.15,2013-05-17 03:45:00,
2013-05-16 17:50:00,71.7,64.1,30.09,East,90,6.0,-999.0,77,0.00,,,0.01,Wunderground v.1.15,2013-05-17 03:50:00,
2013-05-16 17:55:00,71.7,64.1,30.09,East,90,6.0,-999.0,77,0.00,,,0.01,Wunderground v.1.15,2013-05-17 03:55:00,
2013-05-16 18:00:00,71.7,64.1,30.09,East,90,6.0,-999.0,77,0.00,,,0.01,Wunderground v.1.15,2013-05-17 04:00:00,
2013-05-16 18:05:00,71.7,64.1,30.09,East,90,6.0,-999.0,77,0.00,,,0.01,Wunderground v.1.15,2013-05-17 04:05:00,
2013-05-16 18:10:00,71.7,64.1,30.09,East,90,6.0,-999.0,77,0.00,,,0.01,Wunderground v.1.15,2013-05-17 04:10:00,
2013-05-16 18:15:00,71.8,63.1,30.09,NE,45,7.0,-999.0,74,0.00,,,0.01,Wunderground v.1.15,2013-05-17 04:15:00,
2013-05-16 18:20:00,71.8,63.1,30.09,NE,45,7.0,-999.0,74,0.00,,,0.01,Wunderground v.1.15,2013-05-17 04:20:00,
2013-05-16 18:25:00,71.8,63.1,30.09,NE,45,7.0,-999.0,74,0.00,,,0.01,Wunderground v.1.15,2013-05-17 04:25:00,
2013-05-16 18:30:00,71.8,63.1,30.09,NE,45,7.0,-999.0,74,0.00,,,0.01,Wunderground v.1.15,2013-05-17 04:30:00,
2013-05-16 18:35:00,71.8,63.1,30.09,NE,45,7.0,-999.0,74,0.00,,,0.01,Wunderground v.1.15,2013-05-17 04:35:00,
2013-05-16 18:40:00,71.8,63.1,30.09,NE,45,7.0,-999.0,74,0.00,,,0.01,Wunderground v.1.15,2013-05-17 04:40:00,
2013-05-16 18:45:00,71.3,61.4,30.09,NE,45,9.0,-999.0,71,0.00,,,0.01,Wunderground v.1.15,2013-05-17 04:45:00,
2013-05-16 18:50:00,71.3,61.4,30.09,NE,45,9.0,-999.0,71,0.00,,,0.01,Wunderground v.1.15,2013-05-17 04:50:00,
2013-05-16 18:55:00,71.3,61.4,30.09,NE,45,9.0,-999.0,71,0.00,,,0.01,Wunderground v.1.15,2013-05-17 04:55:00,
2013-05-16 19:00:00,71.3,61.4,30.09,NE,45,9.0,-999.0,71,0.00,,,0.01,Wunderground v.1.15,2013-05-17 05:00:00,
2013-05-16 19:05:00,71.3,61.4,30.09,NE,45,9.0,-999.0,71,0.00,,,0.01,Wunderground v.1.15,2013-05-17 05:05:00,
2013-05-16 19:10:00,71.3,61.4,30.09,NE,45,9.0,-999.0,71,0.00,,,0.01,Wunderground v.1.15,2013-05-17 05:10:00,
2013-05-16 19:15:00,71.3,62.2,30.11,NE,45,11.0,-999.0,73,0.00,,,0.01,Wunderground v.1.15,2013-05-17 05:15:00,
2013-05-16 19:20:00,71.3,62.2,30.11,NE,45,11.0,-999.0,73,0.00,,,0.01,Wunderground v.1.15,2013-05-17 05:20:00,
2013-05-16 19:25:00,71.3,62.2,30.11,NE,45,11.0,-999.0,73,0.00,,,0.01,Wunderground v.1.15,2013-05-17 05:25:00,
2013-05-16 19:30:00,71.3,62.2,30.11,NE,45,11.0,-999.0,73,0.00,,,0.01,Wunderground v.1.15,2013-05-17 05:30:00,
2013-05-16 19:35:00,71.3,62.2,30.11,NE,45,11.0,-999.0,73,0.00,,,0.01,Wunderground v.1.15,2013-05-17 05:35:00,
2013-05-16 19:40:00,71.3,62.2,30.11,NE,45,11.0,-999.0,73,0.00,,,0.01,Wunderground v.1.15,2013-05-17 05:40:00,
2013-05-16 19:45:00,70.9,64.1,30.13,NE,45,7.0,-999.0,79,0.00,,,0.01,Wunderground v.1.15,2013-05-17 05:45:00,
2013-05-16 19:50:00,70.9,64.1,30.13,NE,45,7.0,-999.0,79,0.00,,,0.01,Wunderground v.1.15,2013-05-17 05:50:00,
2013-05-16 19:55:00,70.9,64.1,30.13,NE,45,7.0,-999.0,79,0.00,,,0.01,Wunderground v.1.15,2013-05-17 05:55:00,
2013-05-16 20:00:00,70.9,64.1,30.13,NE,45,7.0,-999.0,79,0.00,,,0.01,Wunderground v.1.15,2013-05-17 06:00:00,
2013-05-16 20:05:00,70.9,64.1,30.13,NE,45,7.0,-999.0,79,0.00,,,0.01,Wunderground v.1.15,2013-05-17 06:05:00,
2013-05-16 20:10:00,70.9,64.1,30.13,NE,45,7.0,-999.0,79,0.00,,,0.01,Wunderground v.1.15,2013-05-17 06:10:00,
2013-05-16 20:15:00,70.0,62.8,30.14,East,90,6.0,-999.0,78,0.00,,,0.01,Wunderground v.1.15,2013-05-17 06:15:00,
2013-05-16 20:20:00,70.0,62.8,30.14,East,90,6.0,-999.0,78,0.00,,,0.01,Wunderground v.1.15,2013-05-17 06:20:00,
2013-05-16 20:25:00,70.0,62.8,30.14,East,90,6.0,-999.0,78,0.00,,,0.01,Wunderground v.1.15,2013-05-17 06:25:00,
2013-05-16 20:30:00,70.0,62.8,30.14,East,90,6.0,-999.0,78,0.00,,,0.01,Wunderground v.1.15,2013-05-17 06:30:00,
2013-05-16 20:35:00,70.0,62.8,30.14,East,90,6.0,-999.0,78,0.00,,,0.01,Wunderground v.1.15,2013-05-17 06:35:00,
2013-05-16 20:40:00,70.0,62.8,30.14,East,90,6.0,-999.0,78,0.00,,,0.01,Wunderground v.1.15,2013-05-17 06:40:00,
2013-05-16 20:45:00,69.3,63.6,30.13,NE,45,6.0,-999.0,82,0.00,,,0.01,Wunderground v.1.15,2013-05-17 06:45:00,
2013-05-16 20:50:00,69.3,63.6,30.13,NE,45,6.0,-999.0,82,0.00,,,0.01,Wunderground v.1.15,2013-05-17 06:50:00,
2013-05-16 20:55:00,69.3,63.6,30.13,NE,45,6.0,-999.0,82,0.00,,,0.01,Wunderground v.1.15,2013-05-17 06:55:00,
2013-05-16 21:00:00,69.3,63.6,30.13,NE,45,6.0,-999.0,82,0.00,,,0.01,Wunderground v.1.15,2013-05-17 07:00:00,
2013-05-16 21:05:00,69.3,63.6,30.13,NE,45,6.0,-999.0,82,0.00,,,0.01,Wunderground v.1.15,2013-05-17 07:05:00,
2013-05-16 21:10:00,69.3,63.6,30.13,NE,45,6.0,-999.0,82,0.00,,,0.01,Wunderground v.1.15,2013-05-17 07:10:00,
2013-05-16 21:15:00,69.5,64.1,30.14,NE,45,6.0,-999.0,83,0.00,,,0.01,Wunderground v.1.15,2013-05-17 07:15:00,
2013-05-16 21:20:00,69.5,64.1,30.14,NE,45,6.0,-999.0,83,0.00,,,0.01,Wunderground v.1.15,2013-05-17 07:20:00,
2013-05-16 21:25:00,69.5,64.1,30.14,NE,45,6.0,-999.0,83,0.00,,,0.01,Wunderground v.1.15,2013-05-17 07:25:00,
2013-05-16 21:30:00,69.5,64.1,30.14,NE,45,6.0,-999.0,83,0.00,,,0.01,Wunderground v.1.15,2013-05-17 07:30:00,
2013-05-16 21:35:00,69.5,64.1,30.14,NE,45,6.0,-999.0,83,0.00,,,0.01,Wunderground v.1.15,2013-05-17 07:35:00,
2013-05-16 21:40:00,69.5,64.1,30.14,NE,45,6.0,-999.0,83,0.00,,,0.01,Wunderground v.1.15,2013-05-17 07:40:00,
2013-05-16 21:45:00,70.1,64.7,30.15,NE,45,6.0,-999.0,83,0.00,,,0.01,Wunderground v.1.15,2013-05-17 07:45:00,
2013-05-16 21:50:00,70.1,64.7,30.15,NE,45,6.0,-999.0,83,0.00,,,0.01,Wunderground v.1.15,2013-05-17 07:50:00,
2013-05-16 21:55:00,70.1,64.7,30.15,NE,45,6.0,-999.0,83,0.00,,,0.01,Wunderground v.1.15,2013-05-17 07:55:00,
2013-05-16 22:00:00,70.1,64.7,30.15,NE,45,6.0,-999.0,83,0.00,,,0.01,Wunderground v.1.15,2013-05-17 08:00:00,
2013-05-16 22:05:00,70.1,64.7,30.15,NE,45,6.0,-999.0,83,0.00,,,0.01,Wunderground v.1.15,2013-05-17 08:05:00,
2013-05-16 22:10:00,70.1,64.7,30.15,NE,45,6.0,-999.0,83,0.00,,,0.01,Wunderground v.1.15,2013-05-17 08:10:00,
2013-05-16 22:15:00,69.9,63.8,30.15,NE,45,6.0,-999.0,81,0.00,,,0.01,Wunderground v.1.15,2013-05-17 08:15:00,
2013-05-16 22:20:00,69.9,63.8,30.15,NE,45,6.0,-999.0,81,0.00,,,0.01,Wunderground v.1.15,2013-05-17 08:20:00,
2013-05-16 22:25:00,69.9,63.8,30.15,NE,45,6.0,-999.0,81,0.00,,,0.01,Wunderground v.1.15,2013-05-17 08:25:00,
2013-05-16 22:30:00,69.9,63.8,30.15,NE,45,6.0,-999.0,81,0.00,,,0.01,Wunderground v.1.15,2013-05-17 08:30:00,
2013-05-16 22:35:00,69.9,63.8,30.15,NE,45,6.0,-999.0,81,0.00,,,0.01,Wunderground v.1.15,2013-05-17 08:35:00,
2013-05-16 22:40:00,69.9,63.8,30.15,NE,45,6.0,-999.0,81,0.00,,,0.01,Wunderground v.1.15,2013-05-17 08:40:00,
2013-05-16 22:45:00,70.4,65.0,30.15,NE,45,5.0,-999.0,83,0.00,,,0.01,Wunderground v.1.15,2013-05-17 08:45:00,
2013-05-16 22:50:00,70.4,65.0,30.15,NE,45,5.0,-999.0,83,0.00,,,0.01,Wunderground v.1.15,2013-05-17 08:50:00,
2013-05-16 22:55:00,70.4,65.0,30.15,NE,45,5.0,-999.0,83,0.00,,,0.01,Wunderground v.1.15,2013-05-17 08:55:00,
2013-05-16 23:00:00,70.4,65.0,30.15,NE,45,5.0,-999.0,83,0.00,,,0.01,Wunderground v.1.15,2013-05-17 09:00:00,
2013-05-16 23:05:00,70.4,65.0,30.15,NE,45,5.0,-999.0,83,0.00,,,0.01,Wunderground v.1.15,2013-05-17 09:05:00,
2013-05-16 23:10:00,70.4,65.0,30.15,NE,45,5.0,-999.0,83,0.00,,,0.01,Wunderground v.1.15,2013-05-17 09:10:00,
2013-05-16 23:15:00,69.8,64.1,30.15,ENE,68,4.0,-999.0,82,0.00,,,0.01,Wunderground v.1.15,2013-05-17 09:15:00,
2013-05-16 23:20:00,69.8,64.1,30.15,ENE,68,4.0,-999.0,82,0.00,,,0.01,Wunderground v.1.15,2013-05-17 09:20:00,
2013-05-16 23:25:00,69.8,64.1,30.15,ENE,68,4.0,-999.0,82,0.00,,,0.01,Wunderground v.1.15,2013-05-17 09:25:00,
2013-05-16 23:30:00,69.8,64.1,30.15,ENE,68,4.0,-999.0,82,0.00,,,0.01,Wunderground v.1.15,2013-05-17 09:30:00,
2013-05-16 23:35:00,69.8,64.1,30.15,ENE,68,4.0,-999.0,82,0.00,,,0.01,Wunderground v.1.15,2013-05-17 09:35:00,
2013-05-16 23:40:00,69.8,64.1,30.15,ENE,68,4.0,-999.0,82,0.00,,,0.01,Wunderground v.1.15,2013-05-17 09:40:00,
2013-05-16 23:45:00,69.9,63.4,30.13,NE,45,4.0,-999.0,80,0.00,,,0.01,Wunderground v.1.15,2013-05-17 09:45:00,
2013-05-16 23:50:00,69.9,63.4,30.13,NE,45,4.0,-999.0,80,0.00,,,0.01,Wunderground v.1.15,2013-05-17 09:50:00,
2013-05-16 23:55:00,69.9,63.4,30.13,NE,45,4.0,-999.0,80,0.00,,,0.01,Wunderground v.1.15,2013-05-17 09:55:00,